FDX450 YMAV-YMML

Flight info

Callsign FDX450
Flight time 0h 12m
Altitude 6000
Route JUSTY3/36 ML
Aircraft MD11/H-SDE1E2E3FGHIJ2J3J4J5M1RWXY/LB1D1

Departure

Time 2026-04-30 10:26
Airport Melbourne Avalon International Airport (YMAV)

Arrival

Time 2026-04-30 10:38
Airport Melbourne Airport (YMML)
Time Latitude Longitude Altitude Speed Heading
2026-04-30 10:07 -38.02725 144.47263 43 ft 0 kts
2026-04-30 10:13 -38.02721 144.47264 41 ft 1 kts
2026-04-30 10:13 -38.02716 144.47265 42 ft 0 kts
2026-04-30 10:13 -38.02733 144.47264 41 ft 3 kts 341°
2026-04-30 10:13 -38.02748 144.47275 41 ft 3 kts 304°
2026-04-30 10:14 -38.02756 144.47295 40 ft 3 kts 279°
2026-04-30 10:14 -38.02758 144.47317 43 ft 3 kts 275°
2026-04-30 10:14 -38.02761 144.47362 43 ft 3 kts 275°
2026-04-30 10:15 -38.02763 144.47385 43 ft 3 kts 275°
2026-04-30 10:15 -38.02764 144.47407 43 ft 3 kts 275°
2026-04-30 10:15 -38.02766 144.47428 42 ft 0 kts 275°
2026-04-30 10:18 -38.02766 144.47427 42 ft 1 kts 275°
2026-04-30 10:19 -38.02887 144.47356 43 ft 26 kts 183°
2026-04-30 10:19 -38.03071 144.47325 43 ft 26 kts 194°
2026-04-30 10:19 -38.03212 144.47197 43 ft 25 kts 238°
2026-04-30 10:19 -38.03325 144.47061 42 ft 21 kts 199°
2026-04-30 10:20 -38.03456 144.47030 42 ft 19 kts 189°
2026-04-30 10:20 -38.03719 144.46990 43 ft 20 kts 186°
2026-04-30 10:20 -38.03858 144.46969 44 ft 21 kts 187°
2026-04-30 10:21 -38.04010 144.46943 43 ft 23 kts 188°
2026-04-30 10:21 -38.04171 144.46914 43 ft 24 kts 188°
2026-04-30 10:21 -38.04338 144.46882 43 ft 25 kts 188°
2026-04-30 10:21 -38.04512 144.46853 44 ft 25 kts 187°
2026-04-30 10:22 -38.04691 144.46826 44 ft 26 kts 187°
2026-04-30 10:22 -38.04875 144.46798 44 ft 27 kts 187°
2026-04-30 10:22 -38.05063 144.46766 44 ft 28 kts 187°
2026-04-30 10:22 -38.05256 144.46733 42 ft 28 kts 187°
2026-04-30 10:23 -38.05413 144.46668 42 ft 17 kts 225°
2026-04-30 10:23 -38.05435 144.46532 44 ft 16 kts 291°
2026-04-30 10:23 -38.05370 144.46493 45 ft 4 kts
2026-04-30 10:23 -38.05369 144.46493 45 ft 0 kts
2026-04-30 10:25 -38.05367 144.46493 45 ft 1 kts
2026-04-30 10:25 -38.05343 144.46497 44 ft 15 kts
2026-04-30 10:26 -38.04787 144.46594 44 ft 142 kts
2026-04-30 10:26 -38.03551 144.46812 483 ft 199 kts
2026-04-30 10:26 -38.02330 144.47018 2423 ft 160 kts
2026-04-30 10:26 -38.01190 144.47254 3643 ft 184 kts
2026-04-30 10:27 -37.99877 144.47745 4389 ft 206 kts 26°
2026-04-30 10:27 -37.98770 144.49023 5049 ft 224 kts 45°
2026-04-30 10:27 -37.97803 144.50567 5412 ft 224 kts 47°
2026-04-30 10:27 -37.96828 144.52103 5782 ft 224 kts 46°
2026-04-30 10:28 -37.96058 144.53865 5939 ft 236 kts 71°
2026-04-30 10:28 -37.95945 144.56015 5817 ft 242 kts 89°
2026-04-30 10:28 -37.96085 144.58108 5109 ft 237 kts 91°
2026-04-30 10:28 -37.96248 144.60122 4378 ft 234 kts 91°
2026-04-30 10:29 -37.96425 144.62150 3950 ft 240 kts 91°
2026-04-30 10:29 -37.96615 144.64386 3601 ft 263 kts 91°
2026-04-30 10:29 -37.96817 144.66714 3230 ft 267 kts 91°
2026-04-30 10:29 -37.96803 144.68915 2992 ft 230 kts 70°
2026-04-30 10:30 -37.96110 144.70468 2939 ft 185 kts 37°
2026-04-30 10:30 -37.95116 144.71451 2986 ft 180 kts 31°
2026-04-30 10:30 -37.94138 144.72429 2990 ft 179 kts 34°
2026-04-30 10:30 -37.93208 144.73451 2982 ft 180 kts 36°
2026-04-30 10:31 -37.92291 144.74534 2989 ft 180 kts 38°
2026-04-30 10:31 -37.91423 144.75622 2688 ft 174 kts 39°
2026-04-30 10:31 -37.90577 144.76729 2517 ft 175 kts 41°
2026-04-30 10:31 -37.89779 144.77812 2474 ft 166 kts 41°
2026-04-30 10:32 -37.89004 144.78889 2488 ft 164 kts 42°
2026-04-30 10:32 -37.88244 144.79966 2486 ft 165 kts 43°
2026-04-30 10:32 -37.87486 144.81056 2493 ft 165 kts 43°
2026-04-30 10:32 -37.86734 144.82152 2487 ft 166 kts 43°
2026-04-30 10:33 -37.85986 144.83257 2485 ft 165 kts 44°
2026-04-30 10:33 -37.85240 144.84364 2487 ft 165 kts 44°
2026-04-30 10:33 -37.84489 144.85466 2474 ft 165 kts 40°
2026-04-30 10:33 -37.83582 144.86286 2463 ft 159 kts 19°
2026-04-30 10:34 -37.82508 144.86471 2385 ft 155 kts 355°
2026-04-30 10:34 -37.81432 144.86314 2340 ft 157 kts 354°
2026-04-30 10:34 -37.80346 144.86144 2280 ft 157 kts 354°
2026-04-30 10:34 -37.79277 144.85972 2229 ft 151 kts 353°
2026-04-30 10:35 -37.78300 144.85808 2029 ft 132 kts 354°
2026-04-30 10:35 -37.77402 144.85654 1898 ft 129 kts 354°
2026-04-30 10:35 -37.76515 144.85502 1751 ft 128 kts 353°
2026-04-30 10:35 -37.75634 144.85347 1682 ft 127 kts 354°
2026-04-30 10:36 -37.74762 144.85193 1611 ft 127 kts 353°
2026-04-30 10:36 -37.73874 144.85036 1376 ft 129 kts 353°
2026-04-30 10:36 -37.72950 144.84875 1165 ft 137 kts 353°
2026-04-30 10:36 -37.72003 144.84702 909 ft 138 kts 354°
2026-04-30 10:37 -37.71050 144.84545 808 ft 141 kts 352°
2026-04-30 10:37 -37.70078 144.84355 646 ft 141 kts 352°
2026-04-30 10:37 -37.69124 144.84202 485 ft 138 kts 352°
2026-04-30 10:37 -37.68195 144.84024 369 ft 126 kts 352°
2026-04-30 10:38 -37.67507 144.83895 377 ft 75 kts 351°
2026-04-30 10:38 -37.67050 144.83837 392 ft 58 kts
2026-04-30 10:38 -37.66750 144.83975 398 ft 31 kts 45°
2026-04-30 10:38 -37.66749 144.84163 400 ft 19 kts 139°
2026-04-30 10:39 -37.66872 144.84207 395 ft 19 kts 169°
2026-04-30 10:39 -37.67008 144.84236 393 ft 19 kts 162°
2026-04-30 10:39 -37.67057 144.84301 393 ft 5 kts 102°
2026-04-30 10:39 -37.67034 144.84438 394 ft 21 kts 68°